Year,Month,Day,Hour,Minute,Value (Times are PST for windspeed in km/hr)
2010,04,26,00,00,2.20
2010,04,26,00,01,2.50
2010,04,26,00,02,1.90
2010,04,26,00,03,0.30
2010,04,26,00,04,1.70
2010,04,26,00,05,2.60
2010,04,26,00,06,3.40
2010,04,26,00,07,3.20
2010,04,26,00,08,2.90
2010,04,26,00,09,2.30
2010,04,26,00,10,1.40
2010,04,26,00,11,0.40
2010,04,26,00,12,0.00
2010,04,26,00,13,2.00
2010,04,26,00,14,2.90
2010,04,26,00,15,2.10
2010,04,26,00,16,2.70
2010,04,26,00,17,3.40
2010,04,26,00,18,3.50
2010,04,26,00,19,3.50
2010,04,26,00,20,3.30
2010,04,26,00,21,3.30
2010,04,26,00,22,2.30
2010,04,26,00,23,2.60
2010,04,26,00,24,1.60
2010,04,26,00,25,0.00
2010,04,26,00,26,0.00
2010,04,26,00,27,4.00
2010,04,26,00,28,4.90
2010,04,26,00,29,5.40
2010,04,26,00,30,6.50
2010,04,26,00,31,4.20
2010,04,26,00,32,4.90
2010,04,26,00,33,4.20
2010,04,26,00,34,4.10
2010,04,26,00,35,4.50
2010,04,26,00,36,3.30
2010,04,26,00,37,2.50
2010,04,26,00,38,2.00
2010,04,26,00,39,1.40
2010,04,26,00,40,0.00
2010,04,26,00,41,0.00
2010,04,26,00,42,0.00
2010,04,26,00,43,1.40
2010,04,26,00,44,4.70
2010,04,26,00,45,5.10
2010,04,26,00,46,2.80
2010,04,26,00,47,2.70
2010,04,26,00,48,2.90
2010,04,26,00,49,4.60
2010,04,26,00,50,3.40
2010,04,26,00,51,5.80
2010,04,26,00,52,3.90
2010,04,26,00,53,3.50
2010,04,26,00,54,1.90
2010,04,26,00,55,0.40
2010,04,26,00,56,0.00
2010,04,26,00,57,0.40
2010,04,26,00,58,2.20
2010,04,26,00,59,3.30
2010,04,26,01,00,3.20
2010,04,26,01,01,0.80
2010,04,26,01,02,1.80
2010,04,26,01,03,2.90
2010,04,26,01,04,1.80
2010,04,26,01,05,0.00
2010,04,26,01,06,1.40
2010,04,26,01,07,2.60
2010,04,26,01,08,2.10
2010,04,26,01,09,1.50
2010,04,26,01,10,0.00
2010,04,26,01,11,0.00
2010,04,26,01,12,0.00
2010,04,26,01,13,0.00
2010,04,26,01,14,0.00
2010,04,26,01,15,0.00
2010,04,26,01,16,0.00
2010,04,26,01,17,0.00
2010,04,26,01,18,0.00
2010,04,26,01,19,1.10
2010,04,26,01,20,2.50
2010,04,26,01,21,2.20
2010,04,26,01,22,3.60
2010,04,26,01,23,3.50
2010,04,26,01,24,2.80
2010,04,26,01,25,1.60
2010,04,26,01,26,2.40
2010,04,26,01,27,3.70
2010,04,26,01,28,0.60
2010,04,26,01,29,2.60
2010,04,26,01,30,1.90
2010,04,26,01,31,1.40
2010,04,26,01,32,1.40
2010,04,26,01,33,1.00
2010,04,26,01,34,1.70
2010,04,26,01,35,1.30
2010,04,26,01,36,0.20
2010,04,26,01,37,0.00
2010,04,26,01,38,1.30
2010,04,26,01,39,1.40
2010,04,26,01,40,0.00
2010,04,26,01,41,0.00
2010,04,26,01,42,0.00
2010,04,26,01,43,0.00
2010,04,26,01,44,0.00
2010,04,26,01,45,0.00
2010,04,26,01,46,0.00
2010,04,26,01,47,0.00
2010,04,26,01,48,0.00
2010,04,26,01,49,1.70
2010,04,26,01,50,1.90
2010,04,26,01,51,3.10
2010,04,26,01,52,3.20
2010,04,26,01,53,3.90
2010,04,26,01,54,1.40
2010,04,26,01,55,2.80
2010,04,26,01,56,2.50
2010,04,26,01,57,2.30
2010,04,26,01,58,0.00
2010,04,26,01,59,0.00
2010,04,26,02,00,0.00
2010,04,26,02,01,0.00
2010,04,26,02,02,0.00
2010,04,26,02,03,2.00
2010,04,26,02,04,3.10
2010,04,26,02,05,3.90
2010,04,26,02,06,3.00
2010,04,26,02,07,3.40
2010,04,26,02,08,2.60
2010,04,26,02,09,2.20
2010,04,26,02,10,2.80
2010,04,26,02,11,1.70
2010,04,26,02,12,1.20
2010,04,26,02,13,2.00
2010,04,26,02,14,2.40
2010,04,26,02,15,1.30
2010,04,26,02,16,0.00
2010,04,26,02,17,0.00
2010,04,26,02,18,0.10
2010,04,26,02,19,2.50
2010,04,26,02,20,2.00
2010,04,26,02,21,2.00
2010,04,26,02,22,0.40
2010,04,26,02,23,0.00
2010,04,26,02,24,0.00
2010,04,26,02,25,0.00
2010,04,26,02,26,0.00
2010,04,26,02,27,0.00
2010,04,26,02,28,0.00
2010,04,26,02,29,0.00
2010,04,26,02,30,1.10
2010,04,26,02,31,2.50
2010,04,26,02,32,2.30
2010,04,26,02,33,3.00
2010,04,26,02,34,2.50
2010,04,26,02,35,1.90
2010,04,26,02,36,1.50
2010,04,26,02,37,3.00
2010,04,26,02,38,2.70
2010,04,26,02,39,3.00
2010,04,26,02,40,2.60
2010,04,26,02,41,0.70
2010,04,26,02,42,0.10
2010,04,26,02,43,2.80
2010,04,26,02,44,3.40
2010,04,26,02,45,2.70
2010,04,26,02,46,2.30
2010,04,26,02,47,2.80
2010,04,26,02,48,2.60
2010,04,26,02,49,2.40
2010,04,26,02,50,2.10
2010,04,26,02,51,0.60
2010,04,26,02,52,0.00
2010,04,26,02,53,0.00
2010,04,26,02,54,0.00
2010,04,26,02,55,0.50
2010,04,26,02,56,2.80
2010,04,26,02,57,2.00
2010,04,26,02,58,2.70
2010,04,26,02,59,2.20
2010,04,26,03,00,2.20
2010,04,26,03,01,1.60
2010,04,26,03,02,1.50
2010,04,26,03,03,1.50
2010,04,26,03,04,0.00
2010,04,26,03,05,0.00
2010,04,26,03,06,0.00
2010,04,26,03,07,0.00
2010,04,26,03,08,0.00
2010,04,26,03,09,0.00
2010,04,26,03,10,1.80
2010,04,26,03,11,3.50
2010,04,26,03,12,2.60
2010,04,26,03,13,2.60
2010,04,26,03,14,2.30
2010,04,26,03,15,2.50
2010,04,26,03,16,2.50
2010,04,26,03,17,2.00
2010,04,26,03,18,3.60
2010,04,26,03,19,2.40
2010,04,26,03,20,1.90
2010,04,26,03,21,0.80
2010,04,26,03,22,0.50
2010,04,26,03,23,0.00
2010,04,26,03,24,0.10
2010,04,26,03,25,0.00
2010,04,26,03,26,0.00
2010,04,26,03,27,0.30
2010,04,26,03,28,1.80
2010,04,26,03,29,0.50
2010,04,26,03,30,2.60
2010,04,26,03,31,1.70
2010,04,26,03,32,1.10
2010,04,26,03,33,1.80
2010,04,26,03,34,1.90
2010,04,26,03,35,1.40
2010,04,26,03,36,2.30
2010,04,26,03,37,2.10
2010,04,26,03,38,0.30
2010,04,26,03,39,0.80
2010,04,26,03,40,2.90
2010,04,26,03,41,0.60
2010,04,26,03,42,1.30
2010,04,26,03,43,1.30
2010,04,26,03,44,1.10
2010,04,26,03,45,0.00
2010,04,26,03,46,0.00
2010,04,26,03,47,2.20
2010,04,26,03,48,3.10
2010,04,26,03,49,1.50
2010,04,26,03,50,0.00
2010,04,26,03,51,1.00
2010,04,26,03,52,3.00
2010,04,26,03,53,3.00
2010,04,26,03,54,1.50
2010,04,26,03,55,2.50
2010,04,26,03,56,1.30
2010,04,26,03,57,2.40
2010,04,26,03,58,0.60
2010,04,26,03,59,0.10
2010,04,26,04,00,0.70
2010,04,26,04,01,2.20
2010,04,26,04,02,1.90
2010,04,26,04,03,3.20
2010,04,26,04,04,3.90
2010,04,26,04,05,2.40
2010,04,26,04,06,2.90
2010,04,26,04,07,2.30
2010,04,26,04,08,1.70
2010,04,26,04,09,1.70
2010,04,26,04,10,1.00
2010,04,26,04,11,2.30
2010,04,26,04,12,1.90
2010,04,26,04,13,0.90
2010,04,26,04,14,0.00
2010,04,26,04,15,0.00
2010,04,26,04,16,0.00
2010,04,26,04,17,0.00
2010,04,26,04,18,0.00
2010,04,26,04,19,2.20
2010,04,26,04,20,3.10
2010,04,26,04,21,2.50
2010,04,26,04,22,2.00
2010,04,26,04,23,1.00
2010,04,26,04,24,0.70
2010,04,26,04,25,0.10
2010,04,26,04,26,0.10
2010,04,26,04,27,2.10
2010,04,26,04,28,1.90
2010,04,26,04,29,0.40
2010,04,26,04,30,0.00
2010,04,26,04,31,0.70
2010,04,26,04,32,0.50
2010,04,26,04,33,0.00
2010,04,26,04,34,0.00
2010,04,26,04,35,0.10
2010,04,26,04,36,1.10
2010,04,26,04,37,2.70
2010,04,26,04,38,1.80
2010,04,26,04,39,3.20
2010,04,26,04,40,3.30
2010,04,26,04,41,2.20
2010,04,26,04,42,2.70
2010,04,26,04,43,1.50
2010,04,26,04,44,0.60
2010,04,26,04,45,3.50
2010,04,26,04,46,2.70
2010,04,26,04,47,0.00
2010,04,26,04,48,0.40
2010,04,26,04,49,0.40
2010,04,26,04,50,2.70
2010,04,26,04,51,2.50
2010,04,26,04,52,2.60
2010,04,26,04,53,2.40
2010,04,26,04,54,5.60
2010,04,26,04,55,3.80
2010,04,26,04,56,1.40
2010,04,26,04,57,1.20
2010,04,26,04,58,0.30
2010,04,26,04,59,1.20
2010,04,26,05,00,3.90
2010,04,26,05,01,4.70
2010,04,26,05,02,1.90
2010,04,26,05,03,3.90
2010,04,26,05,04,3.50
2010,04,26,05,05,3.70
2010,04,26,05,06,2.00
2010,04,26,05,07,1.70
2010,04,26,05,08,1.90
2010,04,26,05,09,0.70
2010,04,26,05,10,2.80
2010,04,26,05,11,3.40
2010,04,26,05,12,0.10
2010,04,26,05,13,3.60
2010,04,26,05,14,5.60
2010,04,26,05,15,4.30
2010,04,26,05,16,4.40
2010,04,26,05,17,1.40
2010,04,26,05,18,1.60
2010,04,26,05,19,4.90
2010,04,26,05,20,5.70
2010,04,26,05,21,2.00
2010,04,26,05,22,2.40
2010,04,26,05,23,4.90
2010,04,26,05,24,4.70
2010,04,26,05,25,6.70
2010,04,26,05,26,4.40
2010,04,26,05,27,5.90
2010,04,26,05,28,1.40
2010,04,26,05,29,0.00
2010,04,26,05,30,3.10
2010,04,26,05,31,6.30
2010,04,26,05,32,3.10
2010,04,26,05,33,4.70
2010,04,26,05,34,6.30
2010,04,26,05,35,5.10
2010,04,26,05,36,1.90
2010,04,26,05,37,5.30
2010,04,26,05,38,5.40
2010,04,26,05,39,3.30
2010,04,26,05,40,3.50
2010,04,26,05,41,3.00
2010,04,26,05,42,2.00
2010,04,26,05,43,3.10
2010,04,26,05,44,2.10
2010,04,26,05,45,0.30
2010,04,26,05,46,0.00
2010,04,26,05,47,2.50
2010,04,26,05,48,3.20
2010,04,26,05,49,4.00
2010,04,26,05,50,6.20
2010,04,26,05,51,4.10
2010,04,26,05,52,1.10
2010,04,26,05,53,4.20
2010,04,26,05,54,4.60
2010,04,26,05,55,3.90
2010,04,26,05,56,1.40
2010,04,26,05,57,0.30
2010,04,26,05,58,0.80
2010,04,26,05,59,5.30
2010,04,26,06,00,4.10
2010,04,26,06,01,3.70
2010,04,26,06,02,1.90
2010,04,26,06,03,0.00
2010,04,26,06,04,1.60
2010,04,26,06,05,2.70
2010,04,26,06,06,2.40
2010,04,26,06,07,3.40
2010,04,26,06,08,4.10
2010,04,26,06,09,3.90
2010,04,26,06,10,3.10
2010,04,26,06,11,3.00
2010,04,26,06,12,2.80
2010,04,26,06,13,0.50
2010,04,26,06,14,1.00
2010,04,26,06,15,0.10
2010,04,26,06,16,2.80
2010,04,26,06,17,5.30
2010,04,26,06,18,4.50
2010,04,26,06,19,2.50
2010,04,26,06,20,1.50
2010,04,26,06,21,1.70
2010,04,26,06,22,2.60
2010,04,26,06,23,3.10
2010,04,26,06,24,3.50
2010,04,26,06,25,0.70
2010,04,26,06,26,1.60
2010,04,26,06,27,0.00
2010,04,26,06,28,0.10
2010,04,26,06,29,3.00
2010,04,26,06,30,3.40
2010,04,26,06,31,4.50
2010,04,26,06,32,2.60
2010,04,26,06,33,2.30
2010,04,26,06,34,0.00
2010,04,26,06,35,0.00
2010,04,26,06,36,0.00
2010,04,26,06,37,0.00
2010,04,26,06,38,0.00
2010,04,26,06,39,2.50
2010,04,26,06,40,4.60
2010,04,26,06,41,5.50
2010,04,26,06,42,4.70
2010,04,26,06,43,4.20
2010,04,26,06,44,9.00
2010,04,26,06,45,6.40
2010,04,26,06,46,4.50
2010,04,26,06,47,5.00
2010,04,26,06,48,4.00
2010,04,26,06,49,4.10
2010,04,26,06,50,5.00
2010,04,26,06,51,1.90
2010,04,26,06,52,0.30
2010,04,26,06,53,2.20
2010,04,26,06,54,0.50
2010,04,26,06,55,1.70
2010,04,26,06,56,0.60
2010,04,26,06,57,0.30
2010,04,26,06,58,1.60
2010,04,26,06,59,3.50
2010,04,26,07,00,2.80
2010,04,26,07,01,2.20
2010,04,26,07,02,2.50
2010,04,26,07,03,0.90
2010,04,26,07,04,2.80
2010,04,26,07,05,0.20
2010,04,26,07,06,2.40
2010,04,26,07,07,1.10
2010,04,26,07,08,2.60
2010,04,26,07,09,1.90
2010,04,26,07,10,2.50
2010,04,26,07,11,2.80
2010,04,26,07,12,3.00
2010,04,26,07,13,2.10
2010,04,26,07,14,0.30
2010,04,26,07,15,1.60
2010,04,26,07,16,4.00
2010,04,26,07,17,5.10
2010,04,26,07,18,5.60
2010,04,26,07,19,8.70
2010,04,26,07,20,7.30
2010,04,26,07,21,2.90
2010,04,26,07,22,3.30
2010,04,26,07,23,6.40
2010,04,26,07,24,4.20
2010,04,26,07,25,4.90
2010,04,26,07,26,3.80
2010,04,26,07,27,2.80
2010,04,26,07,28,4.40
2010,04,26,07,29,2.90
2010,04,26,07,30,6.30
2010,04,26,07,31,4.30
2010,04,26,07,32,2.80
2010,04,26,07,33,0.10
2010,04,26,07,34,3.50
2010,04,26,07,35,3.90
2010,04,26,07,36,3.90
2010,04,26,07,37,2.40
2010,04,26,07,38,2.80
2010,04,26,07,39,1.60
2010,04,26,07,40,2.10
2010,04,26,07,41,0.00
2010,04,26,07,42,0.00
2010,04,26,07,43,0.00
2010,04,26,07,44,3.10
2010,04,26,07,45,2.30
2010,04,26,07,46,3.80
2010,04,26,07,47,5.10
2010,04,26,07,48,5.40
2010,04,26,07,49,5.10
2010,04,26,07,50,6.30
2010,04,26,07,51,3.50
2010,04,26,07,52,3.70
2010,04,26,07,53,3.10
2010,04,26,07,54,2.40
2010,04,26,07,55,1.90
2010,04,26,07,56,0.00
2010,04,26,07,57,0.00
2010,04,26,07,58,0.00
2010,04,26,07,59,0.00
2010,04,26,08,00,0.50
2010,04,26,08,01,2.50
2010,04,26,08,02,2.50
2010,04,26,08,03,0.80
2010,04,26,08,04,1.40
2010,04,26,08,05,0.00
2010,04,26,08,06,0.90
2010,04,26,08,07,1.30
2010,04,26,08,08,1.10
2010,04,26,08,09,0.00
2010,04,26,08,10,0.00
2010,04,26,08,11,0.00
2010,04,26,08,12,0.30
2010,04,26,08,13,3.80
2010,04,26,08,14,5.70
2010,04,26,08,15,4.40
2010,04,26,08,16,9.70
2010,04,26,08,17,8.00
2010,04,26,08,18,6.80
2010,04,26,08,19,6.30
2010,04,26,08,20,4.60
2010,04,26,08,21,3.80
2010,04,26,08,22,2.30
2010,04,26,08,23,2.00
2010,04,26,08,24,0.30
2010,04,26,08,25,0.00
2010,04,26,08,26,0.00
2010,04,26,08,27,0.00
2010,04,26,08,28,2.30
2010,04,26,08,29,1.40
2010,04,26,08,30,0.10
2010,04,26,08,31,2.30
2010,04,26,08,32,3.50
2010,04,26,08,33,3.60
2010,04,26,08,34,1.90
2010,04,26,08,35,2.20
2010,04,26,08,36,1.10
2010,04,26,08,37,0.00
2010,04,26,08,38,0.10
2010,04,26,08,39,2.60
2010,04,26,08,40,0.30
2010,04,26,08,41,1.90
2010,04,26,08,42,3.10
2010,04,26,08,43,3.10
2010,04,26,08,44,3.50
2010,04,26,08,45,1.00
2010,04,26,08,46,3.00
2010,04,26,08,47,3.20
2010,04,26,08,48,3.90
2010,04,26,08,49,5.70
2010,04,26,08,50,2.60
2010,04,26,08,51,5.60
2010,04,26,08,52,4.40
2010,04,26,08,53,6.90
2010,04,26,08,54,8.00
2010,04,26,08,55,6.40
2010,04,26,08,56,4.40
2010,04,26,08,57,0.80
2010,04,26,08,58,5.50
2010,04,26,08,59,7.30
2010,04,26,09,00,9.00
2010,04,26,09,01,6.90
2010,04,26,09,02,5.00
2010,04,26,09,03,2.00
2010,04,26,09,04,0.90
2010,04,26,09,05,3.80
2010,04,26,09,06,1.90
2010,04,26,09,07,3.60
2010,04,26,09,08,4.80
2010,04,26,09,09,3.80
2010,04,26,09,10,2.60
2010,04,26,09,11,1.00
2010,04,26,09,12,2.30
2010,04,26,09,13,4.20
2010,04,26,09,14,5.00
2010,04,26,09,15,4.70
2010,04,26,09,16,4.40
2010,04,26,09,17,5.20
2010,04,26,09,18,2.30
2010,04,26,09,19,0.30
2010,04,26,09,20,1.00
2010,04,26,09,21,1.00
2010,04,26,09,22,3.70
2010,04,26,09,23,1.90
2010,04,26,09,24,6.20
2010,04,26,09,25,6.00
2010,04,26,09,26,6.90
2010,04,26,09,27,6.70
2010,04,26,09,28,5.60
2010,04,26,09,29,4.10
2010,04,26,09,30,6.30
2010,04,26,09,31,6.40
2010,04,26,09,32,6.20
2010,04,26,09,33,6.40
2010,04,26,09,34,5.10
2010,04,26,09,35,3.30
2010,04,26,09,36,3.40
2010,04,26,09,37,1.20
2010,04,26,09,38,5.60
2010,04,26,09,39,0.70
2010,04,26,09,40,4.10
2010,04,26,09,41,5.20
2010,04,26,09,42,4.90
2010,04,26,09,43,7.00
2010,04,26,09,44,7.60
2010,04,26,09,45,7.30
2010,04,26,09,46,5.70
2010,04,26,09,47,4.50
2010,04,26,09,48,2.00
2010,04,26,09,49,5.70
2010,04,26,09,50,8.50
2010,04,26,09,51,7.50
2010,04,26,09,52,7.40
2010,04,26,09,53,2.70
2010,04,26,09,54,2.70
2010,04,26,09,55,4.20
2010,04,26,09,56,5.40
2010,04,26,09,57,6.50
2010,04,26,09,58,9.80
2010,04,26,09,59,6.50
2010,04,26,10,00,8.10
2010,04,26,10,01,8.20
2010,04,26,10,02,6.80
2010,04,26,10,03,6.10
2010,04,26,10,04,5.60
2010,04,26,10,05,5.10
2010,04,26,10,06,8.10
2010,04,26,10,07,3.80
2010,04,26,10,08,2.20
2010,04,26,10,09,1.70
2010,04,26,10,10,6.70
2010,04,26,10,11,8.10
2010,04,26,10,12,7.40
2010,04,26,10,13,4.50
2010,04,26,10,14,2.10
2010,04,26,10,15,3.90
2010,04,26,10,16,3.40
2010,04,26,10,17,1.00
2010,04,26,10,18,0.00
2010,04,26,10,19,1.30
2010,04,26,10,20,2.70
2010,04,26,10,21,2.90
2010,04,26,10,22,7.20
2010,04,26,10,23,2.40
2010,04,26,10,24,3.20
2010,04,26,10,25,3.00
2010,04,26,10,26,0.40
2010,04,26,10,27,1.30
2010,04,26,10,28,5.90
2010,04,26,10,29,9.10
2010,04,26,10,30,8.40
2010,04,26,10,31,4.70
2010,04,26,10,32,0.20
2010,04,26,10,33,2.10
2010,04,26,10,34,3.40
2010,04,26,10,35,7.60
2010,04,26,10,36,11.10
2010,04,26,10,37,10.90
2010,04,26,10,38,8.50
2010,04,26,10,39,10.20
2010,04,26,10,40,6.00
2010,04,26,10,41,6.80
2010,04,26,10,42,10.90
2010,04,26,10,43,9.40
2010,04,26,10,44,6.60
2010,04,26,10,45,5.90
2010,04,26,10,46,7.20
2010,04,26,10,47,6.80
2010,04,26,10,48,6.40
2010,04,26,10,49,5.30
2010,04,26,10,50,4.70
2010,04,26,10,51,5.40
2010,04,26,10,52,5.00
2010,04,26,10,53,1.40
2010,04,26,10,54,4.20
2010,04,26,10,55,3.80
2010,04,26,10,56,0.00
2010,04,26,10,57,0.10
2010,04,26,10,58,3.50
2010,04,26,10,59,0.70
2010,04,26,11,00,0.20
2010,04,26,11,01,2.30
2010,04,26,11,02,4.30
2010,04,26,11,03,3.70
2010,04,26,11,04,0.60
2010,04,26,11,05,6.20
2010,04,26,11,06,4.40
2010,04,26,11,07,6.80
2010,04,26,11,08,3.40
2010,04,26,11,09,0.60
2010,04,26,11,10,2.10
2010,04,26,11,11,7.60
2010,04,26,11,12,6.00
2010,04,26,11,13,6.50
2010,04,26,11,14,5.10
2010,04,26,11,15,7.30
2010,04,26,11,16,4.80
2010,04,26,11,17,5.50
2010,04,26,11,18,6.00
2010,04,26,11,19,5.30
2010,04,26,11,20,6.80
2010,04,26,11,21,8.00
2010,04,26,11,22,11.30
2010,04,26,11,23,7.10
2010,04,26,11,24,9.10
2010,04,26,11,25,3.00
2010,04,26,11,26,2.70
2010,04,26,11,27,3.50
2010,04,26,11,28,0.90
2010,04,26,11,29,2.00
2010,04,26,11,30,6.90
2010,04,26,11,31,7.30
2010,04,26,11,32,5.30
2010,04,26,11,33,4.10
2010,04,26,11,34,4.10
2010,04,26,11,35,8.90
2010,04,26,11,36,4.70
2010,04,26,11,37,4.70
2010,04,26,11,38,3.50
2010,04,26,11,39,3.40
2010,04,26,11,40,0.40
2010,04,26,11,41,2.50
2010,04,26,11,42,4.20
2010,04,26,11,43,8.00
2010,04,26,11,44,2.50
2010,04,26,11,45,3.00
2010,04,26,11,46,1.90
2010,04,26,11,47,3.20
2010,04,26,11,48,4.10
2010,04,26,11,49,3.20
2010,04,26,11,50,2.90
2010,04,26,11,51,2.60
2010,04,26,11,52,4.90
2010,04,26,11,53,1.20
2010,04,26,11,54,3.90
2010,04,26,11,55,5.20
2010,04,26,11,56,3.90
2010,04,26,11,57,1.30
2010,04,26,11,58,5.20
2010,04,26,11,59,6.30
2010,04,26,12,00,4.80
2010,04,26,12,01,6.70
2010,04,26,12,02,6.00
2010,04,26,12,03,1.10
2010,04,26,12,04,1.00
2010,04,26,12,05,4.10
2010,04,26,12,06,0.80
2010,04,26,12,07,1.90
2010,04,26,12,08,0.20
2010,04,26,12,09,0.10
2010,04,26,12,10,2.10
2010,04,26,12,11,0.30
2010,04,26,12,12,3.80
2010,04,26,12,13,2.20
2010,04,26,12,14,2.60
2010,04,26,12,15,4.60
2010,04,26,12,16,2.70
2010,04,26,12,17,3.50
2010,04,26,12,18,2.20
2010,04,26,12,19,2.00
2010,04,26,12,20,0.20
2010,04,26,12,21,0.00
2010,04,26,12,22,0.10
2010,04,26,12,23,1.30
2010,04,26,12,24,2.60
2010,04,26,12,25,1.20
2010,04,26,12,26,2.60
2010,04,26,12,27,3.30
2010,04,26,12,28,2.50
2010,04,26,12,29,5.80
2010,04,26,12,30,5.10
2010,04,26,12,31,2.10
2010,04,26,12,32,5.80
2010,04,26,12,33,8.10
2010,04,26,12,34,2.90
2010,04,26,12,35,0.10
2010,04,26,12,36,4.70
2010,04,26,12,37,4.00
2010,04,26,12,38,5.80
2010,04,26,12,39,5.20
2010,04,26,12,40,4.70
2010,04,26,12,41,7.80
2010,04,26,12,42,4.90
2010,04,26,12,43,5.10
2010,04,26,12,44,4.80
2010,04,26,12,45,8.90
2010,04,26,12,46,9.20
2010,04,26,12,47,4.60
2010,04,26,12,48,4.20
2010,04,26,12,49,5.60
2010,04,26,12,50,8.90
2010,04,26,12,51,9.10
2010,04,26,12,52,11.30
2010,04,26,12,53,6.80
2010,04,26,12,54,7.00
2010,04,26,12,55,6.00
2010,04,26,12,56,7.40
2010,04,26,12,57,9.70
2010,04,26,12,58,3.80
2010,04,26,12,59,4.10
2010,04,26,13,00,1.00
2010,04,26,13,01,3.40
2010,04,26,13,02,3.50
2010,04,26,13,03,2.80
2010,04,26,13,04,3.10
2010,04,26,13,05,5.00
2010,04,26,13,06,9.60
2010,04,26,13,07,12.60
2010,04,26,13,08,5.10
2010,04,26,13,09,3.80
2010,04,26,13,10,1.60
2010,04,26,13,11,1.40
2010,04,26,13,12,3.90
2010,04,26,13,13,3.50
2010,04,26,13,14,5.50
2010,04,26,13,15,7.90
2010,04,26,13,16,3.60
2010,04,26,13,17,5.60
2010,04,26,13,18,4.30
2010,04,26,13,19,7.90
2010,04,26,13,20,7.60
2010,04,26,13,21,7.30
2010,04,26,13,22,10.90
2010,04,26,13,23,13.60
2010,04,26,13,24,2.90
2010,04,26,13,25,3.40
2010,04,26,13,26,7.60
2010,04,26,13,27,10.20
2010,04,26,13,28,8.60
2010,04,26,13,29,7.20
2010,04,26,13,30,7.90
2010,04,26,13,31,4.70
2010,04,26,13,32,8.00
2010,04,26,13,33,10.90
2010,04,26,13,34,10.90
2010,04,26,13,35,6.00
2010,04,26,13,36,0.70
2010,04,26,13,37,5.10
2010,04,26,13,38,7.70
2010,04,26,13,39,5.90
2010,04,26,13,40,13.40
2010,04,26,13,41,8.20
2010,04,26,13,42,9.60
2010,04,26,13,43,7.00
2010,04,26,13,44,16.20
2010,04,26,13,45,16.30
2010,04,26,13,46,8.60
2010,04,26,13,47,12.60
2010,04,26,13,48,13.90
2010,04,26,13,49,12.30
2010,04,26,13,50,17.40
2010,04,26,13,51,20.90
2010,04,26,13,52,14.10
2010,04,26,13,53,10.40
2010,04,26,13,54,15.60
2010,04,26,13,55,15.80
2010,04,26,13,56,10.40
2010,04,26,13,57,8.10
2010,04,26,13,58,8.00
2010,04,26,13,59,9.30
2010,04,26,14,00,9.50
2010,04,26,14,01,9.60
2010,04,26,14,02,12.40
2010,04,26,14,03,17.30
2010,04,26,14,04,8.20
2010,04,26,14,05,9.00
2010,04,26,14,06,17.50
2010,04,26,14,07,11.70
2010,04,26,14,08,12.00
2010,04,26,14,09,10.50
2010,04,26,14,10,19.20
2010,04,26,14,11,21.00
2010,04,26,14,12,20.80
2010,04,26,14,13,17.90
2010,04,26,14,14,12.20
2010,04,26,14,15,15.90
2010,04,26,14,16,19.50
2010,04,26,14,17,17.10
2010,04,26,14,18,12.90
2010,04,26,14,19,10.50
2010,04,26,14,20,13.10
2010,04,26,14,21,14.70
2010,04,26,14,22,6.80
2010,04,26,14,23,10.20
2010,04,26,14,24,15.80
2010,04,26,14,25,11.10
2010,04,26,14,26,18.40
2010,04,26,14,27,17.40
2010,04,26,14,28,15.80
2010,04,26,14,29,10.80
2010,04,26,14,30,14.20
2010,04,26,14,31,15.20
2010,04,26,14,32,12.30
2010,04,26,14,33,15.10
2010,04,26,14,34,14.60
2010,04,26,14,35,11.50
2010,04,26,14,36,9.70
2010,04,26,14,37,16.50
2010,04,26,14,38,12.90
2010,04,26,14,39,11.50
2010,04,26,14,40,13.50
2010,04,26,14,41,13.10
2010,04,26,14,42,13.00
2010,04,26,14,43,15.60
2010,04,26,14,44,16.40
2010,04,26,14,45,14.50
2010,04,26,14,46,14.90
2010,04,26,14,47,27.50
2010,04,26,14,48,20.90
2010,04,26,14,49,24.10
2010,04,26,14,50,22.80
2010,04,26,14,51,21.80
2010,04,26,14,52,19.50
2010,04,26,14,53,31.00
2010,04,26,14,54,19.40
2010,04,26,14,55,24.60
2010,04,26,14,56,18.40
2010,04,26,14,57,21.40
2010,04,26,14,58,21.30
2010,04,26,14,59,19.70
2010,04,26,15,00,20.30
2010,04,26,15,01,20.90
2010,04,26,15,02,32.20
2010,04,26,15,03,23.40
2010,04,26,15,04,27.20
2010,04,26,15,05,26.40
2010,04,26,15,06,32.70
2010,04,26,15,07,21.70
2010,04,26,15,08,18.70
2010,04,26,15,09,9.00
2010,04,26,15,10,8.20
2010,04,26,15,11,9.80
2010,04,26,15,12,18.30
2010,04,26,15,13,19.40
2010,04,26,15,14,20.50
2010,04,26,15,15,17.60
2010,04,26,15,16,21.20
2010,04,26,15,17,14.50
2010,04,26,15,18,32.00
2010,04,26,15,19,21.30
2010,04,26,15,20,22.00
2010,04,26,15,21,18.90
2010,04,26,15,22,20.90
2010,04,26,15,23,23.60
2010,04,26,15,24,23.30
2010,04,26,15,25,24.40
2010,04,26,15,26,27.40
2010,04,26,15,27,26.30
2010,04,26,15,28,28.90
2010,04,26,15,29,32.10
2010,04,26,15,30,18.60
2010,04,26,15,31,23.30
2010,04,26,15,32,27.10
2010,04,26,15,33,22.30
2010,04,26,15,34,20.80
2010,04,26,15,35,27.40
2010,04,26,15,36,24.70
2010,04,26,15,37,26.20
2010,04,26,15,38,21.80
2010,04,26,15,39,21.20
2010,04,26,15,40,28.60
2010,04,26,15,41,29.50
2010,04,26,15,42,31.70
2010,04,26,15,43,17.50
2010,04,26,15,44,20.50
2010,04,26,15,45,26.00
2010,04,26,15,46,28.50
2010,04,26,15,47,24.50
2010,04,26,15,48,19.80
2010,04,26,15,49,16.80
2010,04,26,15,50,29.40
2010,04,26,15,51,30.40
2010,04,26,15,52,19.20
2010,04,26,15,53,26.80
2010,04,26,15,54,27.40
2010,04,26,15,55,21.20
2010,04,26,15,56,22.60
2010,04,26,15,57,24.30
2010,04,26,15,58,34.00
2010,04,26,15,59,23.60
2010,04,26,16,00,12.90
2010,04,26,16,01,31.30
2010,04,26,16,02,26.60
2010,04,26,16,03,27.20
2010,04,26,16,04,27.30
2010,04,26,16,05,34.60
2010,04,26,16,06,21.20
2010,04,26,16,07,29.80
2010,04,26,16,08,32.20
2010,04,26,16,09,31.00
2010,04,26,16,10,30.70
2010,04,26,16,11,24.00
2010,04,26,16,12,32.40
2010,04,26,16,13,33.90
2010,04,26,16,14,24.90
2010,04,26,16,15,20.80
2010,04,26,16,16,18.30
2010,04,26,16,17,26.90
2010,04,26,16,18,33.80
2010,04,26,16,19,24.00
2010,04,26,16,20,20.70
2010,04,26,16,21,31.90
2010,04,26,16,22,33.30
2010,04,26,16,23,30.30
2010,04,26,16,24,29.00
2010,04,26,16,25,19.10
2010,04,26,16,26,19.70
2010,04,26,16,27,29.60
2010,04,26,16,28,43.30
2010,04,26,16,29,31.50
2010,04,26,16,30,24.90
2010,04,26,16,31,26.60
2010,04,26,16,32,32.40
2010,04,26,16,33,28.70
2010,04,26,16,34,19.40
2010,04,26,16,35,25.50
2010,04,26,16,36,16.20
2010,04,26,16,37,28.30
2010,04,26,16,38,22.00
2010,04,26,16,39,27.80
2010,04,26,16,40,30.80
2010,04,26,16,41,20.80
2010,04,26,16,42,29.10
2010,04,26,16,43,36.40
2010,04,26,16,44,32.00
2010,04,26,16,45,35.90
2010,04,26,16,46,24.80
2010,04,26,16,47,34.00
2010,04,26,16,48,36.40
2010,04,26,16,49,27.60
2010,04,26,16,50,21.20
2010,04,26,16,51,41.60
2010,04,26,16,52,30.70
2010,04,26,16,53,32.10
2010,04,26,16,54,37.50
2010,04,26,16,55,40.10
2010,04,26,16,56,31.80
2010,04,26,16,57,43.50
2010,04,26,16,58,43.50
2010,04,26,16,59,36.30
2010,04,26,17,00,27.40
2010,04,26,17,01,36.10
2010,04,26,17,02,32.80
2010,04,26,17,03,27.60
2010,04,26,17,04,27.40
2010,04,26,17,05,29.00
2010,04,26,17,06,31.40
2010,04,26,17,07,31.00
2010,04,26,17,08,31.90
2010,04,26,17,09,26.20
2010,04,26,17,10,37.10
2010,04,26,17,11,31.60
2010,04,26,17,12,22.90
2010,04,26,17,13,30.10
2010,04,26,17,14,36.70
2010,04,26,17,15,39.40
2010,04,26,17,16,24.40
2010,04,26,17,17,35.20
2010,04,26,17,18,30.70
2010,04,26,17,19,26.30
2010,04,26,17,20,44.60
2010,04,26,17,21,36.50
2010,04,26,17,22,22.50
2010,04,26,17,23,23.40
2010,04,26,17,24,23.40
2010,04,26,17,25,34.20
2010,04,26,17,26,34.90
2010,04,26,17,27,31.30
2010,04,26,17,28,25.50
2010,04,26,17,29,25.40
2010,04,26,17,30,33.20
2010,04,26,17,31,26.40
2010,04,26,17,32,32.20
2010,04,26,17,33,31.50
2010,04,26,17,34,32.20
2010,04,26,17,35,25.80
2010,04,26,17,36,37.70
2010,04,26,17,37,33.50
2010,04,26,17,38,34.00
2010,04,26,17,39,30.40
2010,04,26,17,40,36.80
2010,04,26,17,41,32.80
2010,04,26,17,42,28.60
2010,04,26,17,43,32.90
2010,04,26,17,44,22.40
2010,04,26,17,45,34.00
2010,04,26,17,46,35.20
2010,04,26,17,47,25.50
2010,04,26,17,48,20.40
2010,04,26,17,49,24.00
2010,04,26,17,50,20.30
2010,04,26,17,51,20.40
2010,04,26,17,52,36.50
2010,04,26,17,53,31.10
2010,04,26,17,54,18.40
2010,04,26,17,55,24.10